ARIANE 1 DEB

基本信息
目录编号:
19857
目录名称:
ARIANE 1 DEB
国际标识:
1985-056P
轨道中心:
EARTH
物体状态:
在轨
发射日期:
1985-07-02 UTC
轨道信息
数据来源: 国际轨道数据
星历时间: 2026-07-14T05:23:52+0800
半长轴: 24266.2km
偏心率: 0.7102614
轨道倾角: 7.058°
近地点辐角: 171.214°
升交点赤经: 356.998°
平近点角: 177.241°
近地点: 652.717km
远地点: 35123.409km
周期: 626.993分钟
每日圈数: 2.296678
详细信息
发射场:
FRGUI
轨道高度:
LEO
数据来源:
AOE Integration Group
参考系:
TEME
时间系统:
UTC
历元类型:
SGP4
2D轨道图
3D轨道图
轨道高度分析图
轨道倾角分析图
轨道综合分析图
查看轨道综合分析图